Weather History for Presidio Lely Intl, Presidio,, TX

Change the Weather History Date:

Saturday, December 7, 2013

  Actual Average (KMRF) Record (KMRF)
Temperature  
Mean Temperature 35 °F -  
Max Temperature 37 °F 56 °F 73 °F (2007)
Min Temperature 33 °F 26 °F 14 °F (2011)
Degree Days  
Heating Degree Days 30    
Moisture  
Dew Point 28 °F    
Average Humidity 75    
Maximum Humidity 83    
Minimum Humidity 67    
Precipitation  
Precipitation 0.00 in - - ()
Sea Level Pressure  
Sea Level Pressure 30.18 in    
Wind  
Wind Speed 13 mph (NE)    
Max Wind Speed 20 mph    
Max Gust Speed 26 mph    
Visibility 10 miles    
Events      
Averages and records for this station are not official NWS values.
T = Trace of Precipitation, MM = Missing Value Source: NWS Daily Summary

Daily Weather History Graph

Daily Weather History Graph

Search for Another Location

Airport:

Trip Planner

Search our weather history database for the weather conditions in past years. The results will help you decide how hot, cold, wet, or windy it might be!

Date:

Astronomy

Dec. 07, 2013 Rise Set
Actual Time 7:39 AM CST 5:58 PM CST
Civil Twilight 7:13 AM CST 6:24 PM CST
Nautical Twilight 6:44 AM CST 6:54 PM CST
Astronomical Twilight 6:15 AM CST 7:23 PM CST
Moon 11:41 AM CST (12/7) 11:25 PM CST (12/7)
Length of Visible Light 11h 10m
Length of Day
10h 18m
Waxing Crescent, 29% of the Moon is Illuminated
Dec 7
Waxing Crescent
Dec 9
First Quarter
Dec 17
Full
Dec 25
Last Quarter
Jan 1
New

Hourly Weather History & Observations

Time (CST) Temp. Windchill Dew Point Humidity Pressure Visibility Wind Dir Wind Speed Gust Speed Precip Events Conditions
12:15 AM 36.1 °F 26.2 °F 29.1 °F 76% 30.23 in 10.0 mi ENE 17.3 mph 23.0 mph N/A   Clear
12:35 AM 36.5 °F 26.3 °F 28.9 °F 74% 30.24 in 10.0 mi ENE 18.4 mph 25.3 mph N/A   Scattered Clouds
12:55 AM 35.8 °F 27.3 °F 28.4 °F 75% 30.24 in 10.0 mi NE 12.7 mph 20.7 mph N/A   Mostly Cloudy
1:15 AM 35.6 °F 25.2 °F 28.4 °F 75% 30.24 in 10.0 mi NE 18.4 mph 24.2 mph N/A   Overcast
1:35 AM 35.6 °F 25.2 °F 28.4 °F 75% 30.24 in 10.0 mi NE 18.4 mph 25.3 mph N/A   Overcast
1:55 AM 35.1 °F 24.8 °F 27.9 °F 75% 30.23 in 10.0 mi NE 17.3 mph 23.0 mph N/A   Overcast
2:15 AM 34.9 °F 23.9 °F 27.5 °F 74% 30.23 in 10.0 mi NE 19.6 mph 26.5 mph N/A   Overcast
2:35 AM 34.7 °F 24.3 °F 27.3 °F 74% 30.23 in 10.0 mi NE 17.3 mph 26.5 mph N/A   Overcast
2:55 AM 34.7 °F 24.3 °F 27.1 °F 74% 30.22 in 10.0 mi NE 17.3 mph 23.0 mph N/A   Overcast
3:15 AM 34.2 °F 23.0 °F 27.0 °F 75% 30.22 in 10.0 mi NE 19.6 mph 26.5 mph N/A   Overcast
3:35 AM 34.2 °F - 26.8 °F 74% 30.22 in 10.0 mi North - - N/A   Overcast
3:55 AM 34.0 °F - 26.6 °F 74% 30.21 in 10.0 mi North - - N/A   Overcast
4:15 AM 34.2 °F - 27.0 °F 75% 30.22 in 10.0 mi North - - N/A   Overcast
4:35 AM 34.2 °F - 27.1 °F 75% 30.22 in 10.0 mi North - - N/A   Overcast
4:55 AM 34.2 °F - 27.1 °F 75% 30.22 in 10.0 mi North - - N/A   Overcast
5:15 AM 34.0 °F - 27.5 °F 77% 30.21 in 10.0 mi North - - N/A   Overcast
5:35 AM 33.8 °F - 27.5 °F 78% 30.21 in 10.0 mi North - - N/A   Overcast
5:55 AM 33.8 °F - 28.0 °F 79% 30.21 in 10.0 mi North - - N/A   Overcast
6:15 AM 34.2 °F 24.8 °F 28.2 °F 79% 30.21 in 10.0 mi NE 13.8 mph - N/A   Overcast
6:35 AM 34.0 °F - 28.4 °F 80% 30.21 in 10.0 mi North - - N/A   Overcast
6:55 AM 33.8 °F - 28.9 °F 82% 30.22 in 10.0 mi North - - N/A   Overcast
7:15 AM 33.8 °F - 29.1 °F 83% 30.22 in 10.0 mi North - - N/A   Overcast
7:35 AM 33.8 °F - 28.8 °F 82% 30.23 in 10.0 mi North - - N/A   Overcast
7:55 AM 33.8 °F - 28.4 °F 81% 30.23 in 10.0 mi North - - N/A   Overcast
8:15 AM 33.8 °F - 28.2 °F 80% 30.25 in 10.0 mi North - - N/A   Overcast
8:35 AM 33.8 °F - 27.9 °F 79% 30.25 in 10.0 mi North - - N/A   Overcast
8:55 AM 33.8 °F - 27.7 °F 78% 30.25 in 10.0 mi North - - N/A   Overcast
9:15 AM 33.8 °F - 27.9 °F 79% 30.26 in 10.0 mi North - - N/A   Overcast
9:35 AM 34.2 °F - 27.5 °F 77% 30.26 in 10.0 mi North - - N/A   Overcast
9:55 AM 34.2 °F 24.4 °F 27.5 °F 77% 30.27 in 10.0 mi ENE 15.0 mph - N/A   Overcast
10:15 AM 34.0 °F - 26.6 °F 74% 30.26 in 10.0 mi North - - N/A   Overcast
10:35 AM 34.2 °F - 27.3 °F 76% 30.26 in 10.0 mi North - - N/A   Overcast
10:55 AM 34.3 °F 24.6 °F 26.6 °F 73% 30.26 in 10.0 mi NE 15.0 mph - N/A   Overcast
11:15 AM 34.2 °F 23.6 °F 26.2 °F 73% 30.25 in 10.0 mi ENE 17.3 mph 21.9 mph N/A   Overcast
11:35 AM 34.7 °F 24.7 °F 26.4 °F 72% 30.24 in 10.0 mi NE 16.1 mph - N/A   Overcast
11:55 AM 34.7 °F 25.5 °F 26.4 °F 72% 30.24 in 10.0 mi ENE 13.8 mph 20.7 mph N/A   Overcast
12:15 PM 34.9 °F 25.7 °F 26.2 °F 71% 30.21 in 10.0 mi NE 13.8 mph 17.3 mph N/A   Overcast
12:35 PM 35.1 °F 25.5 °F 26.6 °F 71% 30.20 in 10.0 mi NE 15.0 mph 19.6 mph N/A   Overcast
12:55 PM 35.1 °F 27.4 °F 26.4 °F 71% 30.19 in 10.0 mi NE 10.4 mph 18.4 mph N/A   Overcast
1:15 PM 35.8 °F 26.9 °F 26.8 °F 70% 30.17 in 10.0 mi ENE 13.8 mph 17.3 mph N/A   Overcast
1:35 PM 36.1 °F 28.2 °F 27.1 °F 70% 30.15 in 10.0 mi NNE 11.5 mph 16.1 mph N/A   Overcast
1:55 PM 36.9 °F 29.6 °F 27.3 °F 68% 30.14 in 10.0 mi NE 10.4 mph - N/A   Overcast
2:15 PM 37.2 °F 30.0 °F 27.9 °F 69% 30.13 in 10.0 mi NE 10.4 mph - N/A   Overcast
2:35 PM 37.8 °F 30.7 °F 28.0 °F 68% 30.13 in 10.0 mi NE 10.4 mph - N/A   Overcast
2:55 PM 37.4 °F 30.8 °F 27.7 °F 68% 30.12 in 10.0 mi NE 9.2 mph - N/A   Overcast
3:15 PM 37.8 °F 30.2 °F 27.5 °F 67% 30.11 in 10.0 mi NE 11.5 mph - N/A   Overcast
3:35 PM 37.4 °F 30.8 °F 27.5 °F 67% 30.11 in 10.0 mi NNE 9.2 mph - N/A   Overcast
3:55 PM 37.4 °F 30.8 °F 27.9 °F 68% 30.09 in 10.0 mi NE 9.2 mph - N/A   Overcast
4:15 PM 37.4 °F 31.4 °F 28.2 °F 69% 30.09 in 10.0 mi NE 8.1 mph - N/A   Overcast
4:35 PM 37.9 °F 30.5 °F 28.8 °F 70% 30.09 in 10.0 mi NE 11.5 mph - N/A   Overcast
4:55 PM 37.6 °F 31.6 °F 28.9 °F 71% 30.09 in 10.0 mi NE 8.1 mph - N/A   Overcast
5:15 PM 37.8 °F 31.8 °F 29.1 °F 71% 30.09 in 10.0 mi ENE 8.1 mph - N/A   Overcast
5:35 PM 37.8 °F 31.8 °F 29.3 °F 72% 30.09 in 10.0 mi NNE 8.1 mph - N/A   Overcast
5:55 PM 37.6 °F 32.3 °F 29.5 °F 73% 30.10 in 10.0 mi NE 6.9 mph - N/A   Overcast
6:15 PM 37.6 °F 32.3 °F 29.5 °F 73% 30.09 in 10.0 mi NE 6.9 mph - N/A   Overcast
6:35 PM 37.4 °F 32.1 °F 29.3 °F 73% 30.09 in 10.0 mi NNE 6.9 mph - N/A   Overcast
6:55 PM 37.6 °F 31.6 °F 29.3 °F 72% 30.10 in 10.0 mi NNE 8.1 mph - N/A   Overcast
7:15 PM 37.4 °F 31.4 °F 29.3 °F 73% 30.10 in 10.0 mi NE 8.1 mph - N/A   Overcast
7:35 PM 37.4 °F 31.4 °F 29.5 °F 73% 30.11 in 10.0 mi ENE 8.1 mph - N/A   Overcast
7:55 PM 36.7 °F 29.4 °F 29.3 °F 75% 30.10 in 10.0 mi NE 10.4 mph - N/A   Overcast
8:15 PM 36.5 °F 31.0 °F 29.1 °F 75% 30.10 in 10.0 mi NE 6.9 mph - N/A   Overcast
8:35 PM 36.5 °F 31.8 °F 29.1 °F 75% 30.11 in 10.0 mi ENE 5.8 mph - N/A   Overcast
8:55 PM 36.5 °F 31.0 °F 29.3 °F 75% 30.11 in 10.0 mi ENE 6.9 mph - N/A   Overcast
9:15 PM 36.7 °F 30.5 °F 29.3 °F 75% 30.11 in 10.0 mi ENE 8.1 mph - N/A   Overcast
9:35 PM 36.5 °F 30.3 °F 29.7 °F 76% 30.12 in 10.0 mi ENE 8.1 mph - N/A   Overcast
9:55 PM 36.7 °F 32.0 °F 31.5 °F 81% 30.12 in 10.0 mi ENE 5.8 mph - N/A   Overcast
10:15 PM 36.5 °F 31.8 °F 31.5 °F 82% 30.11 in 10.0 mi ENE 5.8 mph - N/A   Overcast
10:35 PM 36.3 °F 31.6 °F 31.1 °F 81% 30.12 in 10.0 mi ENE 5.8 mph - N/A   Overcast
10:55 PM 36.1 °F 31.4 °F 31.1 °F 82% 30.11 in 10.0 mi NE 5.8 mph - N/A   Overcast
11:15 PM 36.1 °F 32.3 °F 31.1 °F 82% 30.11 in 10.0 mi NE 4.6 mph - N/A   Overcast
11:35 PM 36.0 °F 30.3 °F 30.9 °F 82% 30.11 in 10.0 mi East 6.9 mph - N/A   Overcast
11:55 PM 36.0 °F 31.1 °F 31.1 °F 82% 30.11 in 10.0 mi ENE 5.8 mph - N/A   Overcast